Time,TemperatureF,DewpointF,PressureIn,WindDirection,WindDirectionDegrees,WindSpeedMPH,WindSpeedGustMPH,Humidity,HourlyPrecipIn,Conditions,Clouds,dailyrainin,SoftwareType,DateUTC
2013-07-04 00:04:00,66.8,59.0,29.76,NE,46,1.0,2.0,75,0.00,,,0.00,weatherlink.com 1.10,2013-07-04 07:04:00,
2013-07-04 00:19:00,66.8,59.0,29.76,ESE,123,0.0,2.0,76,0.00,,,0.00,weatherlink.com 1.10,2013-07-04 07:19:00,
2013-07-04 00:34:00,66.7,59.0,29.75,ESE,123,0.0,2.0,76,0.00,,,0.00,weatherlink.com 1.10,2013-07-04 07:34:00,
2013-07-04 00:50:00,66.7,59.0,29.75,SE,140,1.0,3.0,77,0.00,,,0.00,weatherlink.com 1.10,2013-07-04 07:50:00,
2013-07-04 01:05:00,66.5,59.0,29.75,SSE,149,2.0,3.0,77,0.00,,,0.00,weatherlink.com 1.10,2013-07-04 08:05:00,
2013-07-04 01:20:00,66.3,59.0,29.75,SSE,148,0.0,3.0,77,0.00,,,0.00,weatherlink.com 1.10,2013-07-04 08:20:00,
2013-07-04 01:35:00,66.2,59.0,29.75,SSE,149,0.0,1.0,77,0.00,,,0.00,weatherlink.com 1.10,2013-07-04 08:35:00,
2013-07-04 01:50:00,66.0,59.0,29.75,SSE,149,0.0,1.0,78,0.00,,,0.00,weatherlink.com 1.10,2013-07-04 08:50:00,
2013-07-04 02:05:00,65.9,59.0,29.75,SSE,149,0.0,1.0,79,0.00,,,0.00,weatherlink.com 1.10,2013-07-04 09:05:00,
2013-07-04 02:20:00,65.7,59.0,29.75,SSE,149,0.0,1.0,80,0.00,,,0.00,weatherlink.com 1.10,2013-07-04 09:20:00,
2013-07-04 02:35:00,65.4,59.0,29.75,SSE,149,0.0,0.0,80,0.00,,,0.00,weatherlink.com 1.10,2013-07-04 09:35:00,
2013-07-04 02:50:00,65.3,59.0,29.74,SSE,149,1.0,2.0,81,0.00,,,0.00,weatherlink.com 1.10,2013-07-04 09:50:00,
2013-07-04 03:05:00,65.4,59.0,29.73,SSE,149,2.0,3.0,81,0.00,,,0.00,weatherlink.com 1.10,2013-07-04 10:05:00,
2013-07-04 03:20:00,65.5,59.0,29.73,SSE,149,0.0,3.0,80,0.00,,,0.00,weatherlink.com 1.10,2013-07-04 10:20:00,
2013-07-04 03:35:00,65.4,59.0,29.73,SSE,149,0.0,2.0,80,0.00,,,0.00,weatherlink.com 1.10,2013-07-04 10:35:00,
2013-07-04 03:50:00,65.3,59.0,29.73,SSE,149,0.0,1.0,80,0.00,,,0.00,weatherlink.com 1.10,2013-07-04 10:50:00,
2013-07-04 04:05:00,65.1,59.0,29.74,SSE,149,0.0,1.0,81,0.00,,,0.00,weatherlink.com 1.10,2013-07-04 11:05:00,
2013-07-04 04:20:00,65.1,59.0,29.73,SSE,149,0.0,1.0,81,0.00,,,0.00,weatherlink.com 1.10,2013-07-04 11:20:00,
2013-07-04 04:35:00,65.0,59.0,29.73,SSE,149,0.0,1.0,81,0.00,,,0.00,weatherlink.com 1.10,2013-07-04 11:35:00,
2013-07-04 04:50:00,65.0,59.0,29.73,SSE,148,0.0,0.0,81,0.00,,,0.00,weatherlink.com 1.10,2013-07-04 11:50:00,
2013-07-04 05:05:00,65.1,59.0,29.72,SSE,149,0.0,2.0,81,0.00,,,0.00,weatherlink.com 1.10,2013-07-04 12:05:00,
2013-07-04 05:20:00,65.2,59.0,29.72,SSE,149,0.0,0.0,80,0.00,,,0.00,weatherlink.com 1.10,2013-07-04 12:20:00,
2013-07-04 05:35:00,65.3,59.0,29.72,SSE,149,0.0,1.0,80,0.00,,,0.00,weatherlink.com 1.10,2013-07-04 12:35:00,
2013-07-04 05:50:00,65.2,59.0,29.73,SSE,148,0.0,1.0,81,0.00,,,0.00,weatherlink.com 1.10,2013-07-04 12:50:00,
2013-07-04 06:05:00,65.1,59.0,29.73,SSE,149,0.0,0.0,81,0.00,,,0.00,weatherlink.com 1.10,2013-07-04 13:05:00,
2013-07-04 06:20:00,65.1,59.0,29.74,SSE,149,0.0,1.0,80,0.00,,,0.00,weatherlink.com 1.10,2013-07-04 13:20:00,
2013-07-04 06:35:00,65.6,59.0,29.74,SSE,149,1.0,2.0,79,0.00,,,0.00,weatherlink.com 1.10,2013-07-04 13:35:00,
2013-07-04 06:50:00,66.6,59.0,29.74,SSE,149,1.0,2.0,77,0.00,,,0.00,weatherlink.com 1.10,2013-07-04 13:50:00,
2013-07-04 07:05:00,67.6,59.0,29.74,SE,138,1.0,2.0,74,0.00,,,0.00,weatherlink.com 1.10,2013-07-04 14:05:00,
2013-07-04 07:20:00,68.2,59.0,29.75,SE,138,1.0,1.0,73,0.00,,,0.00,weatherlink.com 1.10,2013-07-04 14:20:00,
2013-07-04 07:35:00,68.7,59.0,29.74,SE,138,0.0,1.0,72,0.00,,,0.00,weatherlink.com 1.10,2013-07-04 14:35:00,
2013-07-04 07:50:00,68.2,59.0,29.75,SE,138,1.0,3.0,73,0.00,,,0.00,weatherlink.com 1.10,2013-07-04 14:50:00,
2013-07-04 08:05:00,69.0,60.0,29.75,SE,138,0.0,2.0,72,0.00,,,0.00,weatherlink.com 1.10,2013-07-04 15:05:00,
2013-07-04 08:20:00,70.0,60.0,29.75,North,360,3.0,4.0,71,0.00,,,0.00,weatherlink.com 1.10,2013-07-04 15:20:00,
2013-07-04 08:35:00,70.8,60.0,29.76,NNE,19,2.0,5.0,68,0.00,,,0.00,weatherlink.com 1.10,2013-07-04 15:35:00,
2013-07-04 08:50:00,71.9,61.0,29.76,NNE,30,2.0,3.0,68,0.00,,,0.00,weatherlink.com 1.10,2013-07-04 15:50:00,
2013-07-04 09:05:00,73.6,62.0,29.75,NNE,30,2.0,2.0,66,0.00,,,0.00,weatherlink.com 1.10,2013-07-04 16:05:00,
2013-07-04 09:20:00,74.2,62.0,29.75,ENE,59,2.0,4.0,65,0.00,,,0.00,weatherlink.com 1.10,2013-07-04 16:20:00,
2013-07-04 09:35:00,74.8,62.0,29.75,NE,48,0.0,5.0,64,0.00,,,0.00,weatherlink.com 1.10,2013-07-04 16:35:00,
2013-07-04 09:51:00,75.8,62.0,29.75,East,99,2.0,4.0,63,0.00,,,0.00,weatherlink.com 1.10,2013-07-04 16:51:00,
2013-07-04 10:06:00,76.2,63.0,29.75,NE,56,5.0,5.0,63,0.00,,,0.00,weatherlink.com 1.10,2013-07-04 17:06:00,
2013-07-04 10:21:00,76.7,63.0,29.75,North,360,3.0,4.0,62,0.00,,,0.00,weatherlink.com 1.10,2013-07-04 17:21:00,
2013-07-04 10:36:00,76.0,63.0,29.75,NE,52,3.0,5.0,65,0.00,,,0.00,weatherlink.com 1.10,2013-07-04 17:36:00,
2013-07-04 10:51:00,76.6,63.0,29.75,ENE,57,5.0,6.0,64,0.00,,,0.00,weatherlink.com 1.10,2013-07-04 17:51:00,
2013-07-04 11:06:00,76.4,63.0,29.75,NE,40,3.0,5.0,64,0.00,,,0.00,weatherlink.com 1.10,2013-07-04 18:06:00,
2013-07-04 11:21:00,76.7,62.0,29.75,North,355,3.0,6.0,61,0.00,,,0.00,weatherlink.com 1.10,2013-07-04 18:21:00,
2013-07-04 11:36:00,77.6,62.0,29.75,NNW,346,2.0,6.0,58,0.00,,,0.00,weatherlink.com 1.10,2013-07-04 18:36:00,
2013-07-04 11:51:00,78.6,62.0,29.75,North,355,6.0,8.0,56,0.00,,,0.00,weatherlink.com 1.10,2013-07-04 18:51:00,
2013-07-04 12:06:00,78.7,62.0,29.75,North,5,8.0,8.0,56,0.00,,,0.00,weatherlink.com 1.10,2013-07-04 19:06:00,
2013-07-04 12:21:00,79.7,62.0,29.75,NE,44,3.0,6.0,55,0.00,,,0.00,weatherlink.com 1.10,2013-07-04 19:21:00,
2013-07-04 12:36:00,81.6,62.0,29.74,NE,39,2.0,7.0,52,0.00,,,0.00,weatherlink.com 1.10,2013-07-04 19:36:00,
2013-07-04 12:51:00,81.9,63.0,29.74,East,82,1.0,7.0,53,0.00,,,0.00,weatherlink.com 1.10,2013-07-04 19:51:00,
2013-07-04 13:06:00,81.8,63.0,29.74,NE,45,4.0,8.0,54,0.00,,,0.00,weatherlink.com 1.10,2013-07-04 20:06:00,
2013-07-04 13:21:00,81.3,63.0,29.73,East,86,1.0,8.0,54,0.00,,,0.00,weatherlink.com 1.10,2013-07-04 20:21:00,
2013-07-04 13:36:00,80.6,64.0,29.73,ENE,60,3.0,9.0,57,0.00,,,0.00,weatherlink.com 1.10,2013-07-04 20:36:00,
2013-07-04 13:51:00,82.1,64.0,29.73,ENE,59,4.0,8.0,54,0.00,,,0.00,weatherlink.com 1.10,2013-07-04 20:51:00,
2013-07-04 14:06:00,82.8,63.0,29.72,NNW,346,4.0,7.0,51,0.00,,,0.00,weatherlink.com 1.10,2013-07-04 21:06:00,
2013-07-04 14:21:00,83.2,63.0,29.71,NNE,17,4.0,7.0,51,0.00,,,0.00,weatherlink.com 1.10,2013-07-04 21:21:00,
2013-07-04 14:36:00,84.3,62.0,29.71,NNE,18,3.0,7.0,48,0.00,,,0.00,weatherlink.com 1.10,2013-07-04 21:36:00,
2013-07-04 14:51:00,85.1,62.0,29.70,NNE,19,3.0,6.0,46,0.00,,,0.00,weatherlink.com 1.10,2013-07-04 21:51:00,
2013-07-04 15:06:00,85.6,62.0,29.70,ENE,63,7.0,8.0,46,0.00,,,0.00,weatherlink.com 1.10,2013-07-04 22:06:00,
2013-07-04 15:21:00,85.2,63.0,29.70,NE,40,2.0,6.0,47,0.00,,,0.00,weatherlink.com 1.10,2013-07-04 22:21:00,
2013-07-04 15:36:00,85.2,64.0,29.69,ENE,57,0.0,5.0,49,0.00,,,0.00,weatherlink.com 1.10,2013-07-04 22:36:00,
2013-07-04 15:51:00,86.6,63.0,29.68,East,96,2.0,4.0,46,0.00,,,0.00,weatherlink.com 1.10,2013-07-04 22:51:00,
2013-07-04 16:06:00,88.5,65.0,29.68,South,186,2.0,5.0,45,0.00,,,0.00,weatherlink.com 1.10,2013-07-04 23:06:00,
2013-07-04 16:21:00,92.3,58.0,29.68,West,281,4.0,11.0,31,0.00,,,0.00,weatherlink.com 1.10,2013-07-04 23:21:00,
2013-07-04 16:36:00,92.9,57.0,29.67,NW,317,3.0,9.0,30,0.00,,,0.00,weatherlink.com 1.10,2013-07-04 23:36:00,
2013-07-04 16:51:00,90.9,56.0,29.67,West,264,5.0,13.0,31,0.00,,,0.00,weatherlink.com 1.10,2013-07-04 23:51:00,
2013-07-04 17:06:00,90.6,56.0,29.67,West,260,4.0,8.0,31,0.00,,,0.00,weatherlink.com 1.10,2013-07-05 00:06:00,
2013-07-04 17:21:00,88.6,55.0,29.67,NW,304,2.0,13.0,32,0.00,,,0.00,weatherlink.com 1.10,2013-07-05 00:21:00,
2013-07-04 17:37:00,87.1,55.0,29.67,WNW,301,7.0,12.0,33,0.00,,,0.00,weatherlink.com 1.10,2013-07-05 00:37:00,
2013-07-04 17:52:00,85.3,55.0,29.67,North,360,1.0,8.0,35,0.00,,,0.00,weatherlink.com 1.10,2013-07-05 00:52:00,
2013-07-04 18:07:00,83.9,54.0,29.67,North,351,4.0,10.0,36,0.00,,,0.00,weatherlink.com 1.10,2013-07-05 01:07:00,
2013-07-04 18:22:00,82.6,53.0,29.66,NNW,336,3.0,8.0,36,0.00,,,0.00,weatherlink.com 1.10,2013-07-05 01:22:00,
2013-07-04 18:37:00,82.6,53.0,29.66,NNW,327,2.0,7.0,36,0.00,,,0.00,weatherlink.com 1.10,2013-07-05 01:37:00,
2013-07-04 18:52:00,82.7,52.0,29.66,WNW,297,1.0,7.0,35,0.00,,,0.00,weatherlink.com 1.10,2013-07-05 01:52:00,
2013-07-04 19:07:00,81.8,52.0,29.67,North,355,3.0,6.0,35,0.00,,,0.00,weatherlink.com 1.10,2013-07-05 02:07:00,
2013-07-04 19:22:00,80.1,52.0,29.67,NNW,344,2.0,4.0,38,0.00,,,0.00,weatherlink.com 1.10,2013-07-05 02:22:00,
2013-07-04 19:37:00,78.6,51.0,29.67,NNW,347,2.0,11.0,38,0.00,,,0.00,weatherlink.com 1.10,2013-07-05 02:37:00,
2013-07-04 19:52:00,77.8,49.0,29.67,NNW,333,2.0,8.0,36,0.00,,,0.00,weatherlink.com 1.10,2013-07-05 02:52:00,
2013-07-04 20:07:00,76.9,49.0,29.68,NNE,13,2.0,6.0,38,0.00,,,0.00,weatherlink.com 1.10,2013-07-05 03:07:00,
2013-07-04 20:22:00,75.7,49.0,29.69,NNW,340,5.0,5.0,39,0.00,,,0.00,weatherlink.com 1.10,2013-07-05 03:22:00,
2013-07-04 20:37:00,74.4,48.0,29.69,NNE,13,0.0,5.0,40,0.00,,,0.00,weatherlink.com 1.10,2013-07-05 03:37:00,
2013-07-04 20:52:00,74.2,48.0,29.69,NNE,12,2.0,5.0,40,0.00,,,0.00,weatherlink.com 1.10,2013-07-05 03:52:00,
2013-07-04 21:07:00,74.2,48.0,29.70,WNW,294,0.0,6.0,40,0.00,,,0.00,weatherlink.com 1.10,2013-07-05 04:07:00,
2013-07-04 21:22:00,73.6,48.0,29.70,North,355,1.0,2.0,41,0.00,,,0.00,weatherlink.com 1.10,2013-07-05 04:22:00,
2013-07-04 21:37:00,73.2,54.0,29.70,NE,48,0.0,5.0,51,0.00,,,0.00,weatherlink.com 1.10,2013-07-05 04:37:00,
2013-07-04 21:52:00,71.4,54.0,29.71,NNE,19,0.0,3.0,55,0.00,,,0.00,weatherlink.com 1.10,2013-07-05 04:52:00,
2013-07-04 22:07:00,70.6,54.0,29.71,ENE,75,1.0,3.0,56,0.00,,,0.00,weatherlink.com 1.10,2013-07-05 05:07:00,
2013-07-04 22:22:00,71.8,47.0,29.71,SE,136,2.0,3.0,42,0.00,,,0.00,weatherlink.com 1.10,2013-07-05 05:22:00,
2013-07-04 22:37:00,72.5,45.0,29.71,NW,311,2.0,6.0,38,0.00,,,0.00,weatherlink.com 1.10,2013-07-05 05:37:00,
2013-07-04 22:52:00,72.0,46.0,29.71,NE,44,0.0,2.0,40,0.00,,,0.00,weatherlink.com 1.10,2013-07-05 05:52:00,
2013-07-04 23:07:00,70.6,46.0,29.71,NE,44,0.0,3.0,42,0.00,,,0.00,weatherlink.com 1.10,2013-07-05 06:07:00,
2013-07-04 23:22:00,69.2,47.0,29.71,NE,44,0.0,2.0,45,0.00,,,0.00,weatherlink.com 1.10,2013-07-05 06:22:00,
2013-07-04 23:37:00,68.8,47.0,29.71,WNW,294,0.0,3.0,46,0.00,,,0.00,weatherlink.com 1.10,2013-07-05 06:37:00,
2013-07-04 23:52:00,69.8,47.0,29.72,West,264,1.0,5.0,44,0.00,,,0.00,weatherlink.com 1.10,2013-07-05 06:52:00,